Regional Weather Roundup
Issued by NWS

Home | Current Version | Previous Version | Text Only | Print | Product List | Glossary Off
Versions: 1 2 3 4 5 6 7 8 9 10 11 12 13 14 15 16 17 18 19 20 21 22 23 24 25 26 27 28 29 30 31 32 33 34 35 36 37 38 39 40 41 42 43 44 45 46 47 48 49 50

709
ASUS43 KIND 221959
RWRIN

WEATHER ROUNDUP FOR INDIANA
NATIONAL WEATHER SERVICE INDIANAPOLIS IN
400 PM EDT THU JUN 22 2017

NOTE: "FAIR" INDICATES FEW OR NO CLOUDS BELOW 12,000 FEET WITH NO
SIGNIFICANT WEATHER AND/OR OBSTRUCTIONS TO VISIBILITY.

* - STATION DOES NOT REPORT WEATHER SUCH AS PRECIPITATION OR FOG.

+ - STATION NOT QUALITY CONTROLLED BY THE NATIONAL WEATHER SERVICE.
    USE DATA WITH CAUTION...ESPECIALLY DEWPOINT AND RELATIVE
    HUMIDITY OBSERVATIONS.

INZ001>003-010>013-019-020-222100-
NORTHWEST INDIANA

CITY           SKY/WX    TMP DP  RH WIND       PRES   REMARKS
GARY /AIRPORT/ PTSUNNY   88  66  48 S12G23    29.80F
KNOX *+        CLOUDY    84  57  39 S16G24    29.82F
MONTICELLO +   CLOUDY    83  70  64 S15       29.84F
RENSSELAER +   CLOUDY    84  64  51 S17G23    29.83F

$$

LMZ046-743>745-222100-
SOUTHERN LAKE MICHIGAN

STATION/POSITION TIME  TEMP    WIND        PRES    WAVE
                       AIR SEA DIR/SP/G            HT
                 (UTC) (F)     (DEG/KT/KT) (MB)    (FT)
BURNS HARBOR     1940   83     210/ 12/ 17 1009.8F
MICHIGAN CITY    1930   83     200/ 16/ 20   N/A
5NW MICH CITY    1950   75 68  220/  6/  8   N/A     1

$$

INZ004-005-014>016-021>024-222100-
NORTH CENTRAL INDIANA

CITY           SKY/WX    TMP DP  RH WIND       PRES   REMARKS
ELKHART        CLOUDY    82  70  65 SW9G17    29.84F
GOSHEN         PTSUNNY   84  68  58 SW14      29.85S
SOUTH BEND     CLOUDY    83  70  64 SW12      29.84S

$$

INZ006>009-017-018-025>027-222100-
NORTHEAST INDIANA

CITY           SKY/WX    TMP DP  RH WIND       PRES   REMARKS
FORT WAYNE     MOSUNNY   87  69  54 S21       29.87F
KENDALLVILLE + CLOUDY    83  69  62 SW13      29.87F

$$

INZ028-029-035-036-043>045-051>053-222100-
WEST CENTRAL INDIANA

CITY           SKY/WX    TMP DP  RH WIND       PRES   REMARKS
CRAWFORDSVL +  CLOUDY    76  73  88 S16       29.88F
GREENCASTLE +  PTSUNNY   77  72  83 S10       29.91F
LAFAYETTE      CLOUDY    80  71  74 SW13G24   29.85S
TERRE HAUTE    CLOUDY    79  70  74 S15       29.89S

$$

INZ030>032-037>040-046>048-054>057-064-065-222100-
CENTRAL INDIANA

CITY           SKY/WX    TMP DP  RH WIND       PRES   REMARKS
COLUMBUS       CLOUDY    77  66  69 S20G30    29.94F
GREENWOOD *+   PTSUNNY   83  68  59 S18G24    29.92F
INDIANAPOLIS   LGT RAIN  78  72  81 S18G28    29.90F
-EAGLE CREEK   LGT RAIN  80  69  69 SE12G22   29.89F
KOKOMO +       CLOUDY    84  70  62 S16G28    29.88F
MT COMFORT *+  CLOUDY    81  68  65 S15G21    29.92F
SHELBYVILLE    CLOUDY    81  68  64 S17G30    29.92F

$$

INZ033-034-041-042-049-050-058-059-222100-
EAST CENTRAL INDIANA

CITY           SKY/WX    TMP DP  RH WIND       PRES   REMARKS
MUNCIE         PTSUNNY   84  68  58 S21G29    29.89F
RICHMOND +     RAIN      77  70  78 S14G20    29.97F

$$

INZ060-061-067>069-081>083-085>088-222100-
SOUTHWEST INDIANA

CITY           SKY/WX    TMP DP  RH WIND       PRES   REMARKS
EVANSVILLE     RAIN      74  71  91 S8G17     29.89F FOG
HUNTINGBURG *+ CLOUDY    73  71  93 S13G22    29.91F

$$

INZ062-063-066-070>080-084-089>092-222100-
SOUTH CENTRAL AND SOUTHEAST INDIANA

CITY           SKY/WX    TMP DP  RH WIND       PRES   REMARKS
BLOOMINGTON    CLOUDY    78  69  73 S14G22    29.93F
SEYMOUR +      CLOUDY    77  70  78 S10G17    29.94F

$$





USA.gov is the U.S. government's official web portal to all federal, state and local government web resources and services.